FENGYUN 1C DEB, 29736

Orbit data source: Space-Track

FENGYUN 1C DEB, 29736 is space debris in SSO originally from a launch on Mon, 10 May 1999 UTC launched from the Taiyaun Space Center, China (TSC). Fengyun 1C debris stems from the Chinese weather satellite Fengyun-1C, which was intentionally destroyed by a Chinese anti-satellite missile in 2007. This event dramatically increased the amount of space debris, with thousands of trackable fragments posing hazards to satellites and human spaceflight. The Fengyun 1C debris cloud has become a focal point in discussions about space sustainability and the need for international regulations to prevent the creation of new debris.

Loading next visibility...
Identifier
29736, 1999-025AA
Orbit
SSO
Country
Flag of CNCN / PRC
Related business
Manufacturer
Unknown
Mission
Spacecraft
Bus & Motor
Unknown
Mass
Unknown
Launch date (UTC)
1999-05-10 (27 years ago)
Launch vehicle
Unknown
Launch site
Taiyaun Space Center, China (TSC)
Object type
Payload
Rocket body
Debris
Shape & HBR
Unknown shape, 1.1 m
Radar Cross Section
Small (<0.1 m²)

Expand to show TLE details & history
Last TLE update: 10 hours ago

TLE from 10 hours ago
0 FENGYUN 1C DEB
1 29736U 99025AA  26038.05702915  .00000758  00000-0  17379-2 0  9999
2 29736  99.4083 211.6820 0721489  77.7798  38.9606 12.57587984872520
Epoch: 2026-02-07T01:22Z
TLE epoch observation values (Epoch: 2026-02-07T01:22:07.318Z)
Latitude
56.57924°
Longitude
-111.56983°
Altitude
1,021.467 km
Speed
7.542 km/s
True Right ascension
03h 04m 35s
True Declination
56° 25' 36"
Sunlit
Object was in daylight at epoch
Visualization orbit readout
Latitude
Unknown
Longitude
Unknown
Altitude
Unknown
Speed
Unknown
Apparent Right ascension
Unknown
Apparent Declination
Unknown
Sunlit
N/A
Visualization observer readout
Local Sidereal Time
13:16:24
Azimuth
Unknown
Elevation
Unknown
Doppler factor
Unknown
Orbital elements
Apogee altitude
1,993.679 km
Perigee altitude
866.937 km
Semi-major axis
7,808.445 km
Eccentricity
0.07215
Inclination
99.4083°
RAAN
211.682°
Arg. of periapsis
77.7798°
True anomaly
44.54103°
Mean anomaly
38.9606°
Eccentric anomaly
41.71115°
Mean motion
3.14555 °/min
Orbital period
114.45 mins
BSTAR
0.0017379
Loading maneuver chart data...
Computing Atmospheric mass density...

Documentation

Showing up to 5 results
|